Simultaneous Nadir Overpasses (SNOs) Predictions

Prediction of SNOs over PacNW region [( 10.00, 139.50) to ( 22.70, 165.60)] between AQUA and NPP Satellites:

Table of predicted SNOs over PacNW region for the next 30.0 days since TLE Epoch: 3/22/2019
Index Date (AQUA) Time (AQUA) AQUA Lat,Lon Date (NPP) Time (NPP) NPP Lat,Lon Distance(km) Time Diff (sec)
1 03/27/2019 15:10:22 22.61, 159.82 03/27/2019 15:10:45 23.20, 157.27 268.70 23
2 04/04/2019 15:59:52 22.60, 147.44 04/04/2019 16:01:23 23.25, 144.62 297.44 91
3 04/12/2019 15:10:27 22.64, 159.80 04/12/2019 15:10:33 23.18, 157.32 261.24 6




NCC Satellite Simultaneous Nadir Overpasses (SNOs) Prediction Service
